Location: ??????
(38.0677°N, 22.9870°E)
Time: 16:06:03
(UTC+00:00)

ATLAS 2AS CENTAUR R/B - Pass Details

Date: 23 May 2024
Orbit: 1018 x 1193 km, 63.7° (Epoch: 24 June)

Event Time Altitude Azimuth Distance (km) Brightness Sun altitude
Rises 01:35:40 0° 330° (NNW) 3,872 5.8 -16.2°
Reaches altitude 10° 01:38:26 10° 335° (NNW) 2,890 5.2 -15.8°
Maximum altitude 01:45:06 56° 53° (NE) 1,217 3.4 -14.8°
Drops below altitude 10° 01:51:33 10° 131° (SE) 2,801 5.0 -13.9°
Sets 01:54:10 0° 135° (SE) 3,744 5.6 -13.5°
